Location: Gerlach
(40.6516°N, 119.3568°W)
Time: 16:05:40
(UTC-07:00)

ITAMSAT 1 - Pass Details

Date: 06 August 2024
Orbit: 782 x 795 km, 98.8° (Epoch: 14 September)

Event Time Altitude Azimuth Distance (km) Brightness Sun altitude
Exits shadow 20:31:52 - 127° (SE) 2,725 9.8 -5.3°
Reaches altitude 10° 20:32:58 10° 122° (ESE) 2,352 9.4 -5.5°
Maximum altitude 20:37:15 27° 66° (ENE) 1,491 8.8 -6.2°
Drops below altitude 10° 20:41:34 10° 10° (N) 2,370 10.4 -6.9°
Sets 20:44:12 0° 358° (N) 3,305 11.3 -7.3°
